| time (UTC) | temp C | wind direction | speed KPH | gust KPH | rain 1hr cm | rain 24hr cm | rain mn cm | humidity % | barometer mb |
| 20260504192044 | 4 | 268 | 24.1 | 43.5 | 0.03 | 1.24 | 0.43 | 98 | 999.2 |
| 20260504191103 | 3 | 221 | 25.7 | 41.8 | 0.00 | 1.22 | 0.41 | 99 | 999.2 |
| 20260504185055 | 2 | 259 | 25.7 | 45.1 | 0.00 | 1.22 | 0.41 | 99 | 998.7 |
| 20260504184048 | 2 | 264 | 22.5 | 38.6 | 0.00 | 1.22 | 0.41 | 99 | 998.8 |
| 20260504183111 | 2 | 291 | 22.5 | 45.1 | 0.00 | 1.22 | 0.41 | 99 | 998.7 |
| 20260504182555 | 2 | 270 | 20.9 | 41.8 | 0.00 | 1.22 | 0.41 | 100 | 998.5 |
| 20260504181557 | 2 | 253 | 27.4 | 43.5 | 0.00 | 1.22 | 0.41 | 100 | 998.6 |
| 20260504180558 | 2 | 290 | 24.1 | 43.5 | 0.00 | 1.22 | 0.41 | 99 | 998.5 |
| 20260504175554 | 2 | 294 | 25.7 | 46.7 | 0.00 | 1.22 | 0.41 | 100 | 998.0 |
| 20260504174049 | 2 | 356 | 25.7 | 49.9 | 0.00 | 1.22 | 0.41 | 100 | 997.6 |
| 20260504173109 | 2 | 291 | 25.7 | 51.5 | 0.00 | 1.22 | 0.41 | 100 | 997.4 |
| 20260504172103 | 1 | 281 | 29.0 | 49.9 | 0.00 | 1.22 | 0.41 | 100 | 997.3 |
| 20260504171057 | 1 | 214 | 24.1 | 45.1 | 0.00 | 1.22 | 0.41 | 100 | 997.3 |
| 20260504170556 | 1 | 277 | 29.0 | 45.1 | 0.00 | 1.22 | 0.41 | 100 | 996.9 |
| 20260504151057 | 0 | 268 | 27.4 | 45.1 | 0.00 | 1.22 | 0.41 | 99 | 993.9 |
| 20260504140554 | 0 | 353 | 29.0 | 46.7 | 0.05 | 1.22 | 0.41 | 99 | 991.8 |
| 20260504130602 | 0 | 214 | 20.9 | 43.5 | 0.05 | 1.17 | 0.36 | 99 | 989.5 |
| 20260504120105 | 0 | 245 | 19.3 | 35.4 | 0.05 | 1.14 | 0.33 | 99 | 986.9 |
| 20260504110559 | 0 | 290 | 20.9 | 41.8 | 0.05 | 1.12 | 0.30 | 99 | 984.0 |
| 20260504100544 | 0 | 340 | 17.7 | 33.8 | 0.03 | 1.09 | 0.25 | 98 | 980.9 |
| 20260504081101 | 0 | 282 | 11.3 | 19.3 | 0.10 | 0.99 | 0.15 | 98 | 975.9 |
| 20260504050552 | 2 | 90 | 4.8 | 17.7 | 0.00 | 0.81 | 0.00 | 96 | 975.9 |
| 20260504045050 | 2 | 177 | 6.4 | 24.1 | 0.00 | 0.81 | 0.00 | 96 | 976.2 |
| 20260504044559 | 2 | 135 | 9.7 | 24.1 | 0.00 | 0.81 | 0.00 | 96 | 976.3 |
| 20260504043548 | 2 | 129 | 8.0 | 19.3 | 0.00 | 0.81 | 0.00 | 96 | 976.5 |
| 20260504042557 | 2 | 222 | 4.8 | 16.1 | 0.00 | 0.81 | 0.00 | 96 | 976.6 |
| 20260504041555 | 2 | 101 | 9.7 | 32.2 | 0.00 | 0.81 | 0.00 | 96 | 977.0 |
| 20260504040555 | 2 | 162 | 20.9 | 41.8 | 0.00 | 0.81 | 0.00 | 96 | 977.2 |
| 20260504040045 | 2 | 196 | 9.7 | 24.1 | 0.00 | 0.81 | 0.00 | 96 | 977.4 |
| 20260504035053 | 3 | 202 | 11.3 | 35.4 | 0.00 | 0.81 | 0.00 | 96 | 977.3 |
| 20260504034613 | 3 | 90 | 8.0 | 35.4 | 0.00 | 0.81 | 0.00 | 97 | 977.4 |
| 20260504033558 | 3 | 132 | 16.1 | 46.7 | 0.00 | 0.81 | 0.00 | 97 | 977.3 |
| 20260504033056 | 3 | 197 | 14.5 | 45.1 | 0.00 | 0.81 | 0.00 | 97 | 977.7 |
| 20260504032101 | 3 | 118 | 11.3 | 53.1 | 0.00 | 0.81 | 0.00 | 97 | 977.4 |
| 20260504031043 | 3 | 130 | 25.7 | 56.3 | 0.00 | 0.81 | 0.00 | 97 | 976.6 |
| 20260504030110 | 3 | 142 | 32.2 | 66.0 | 0.00 | 0.81 | 0.00 | 97 | 975.9 |
| 20260504025557 | 2 | 196 | 33.8 | 64.4 | 0.00 | 0.81 | 0.81 | 97 | 976.2 |
| 20260504025049 | 2 | 127 | 35.4 | 64.4 | 0.00 | 0.81 | 0.81 | 97 | 976.6 |
| 20260504024048 | 2 | 140 | 14.5 | 46.7 | 0.00 | 0.81 | 0.81 | 96 | 978.0 |
| 20260504023057 | 2 | 87 | 20.9 | 51.5 | 0.00 | 0.81 | 0.81 | 97 | 978.7 |
| 20260504022050 | 2 | 125 | 20.9 | 45.1 | 0.00 | 0.81 | 0.81 | 96 | 979.3 |
| 20260504021050 | 2 | 40 | 29.0 | 61.2 | 0.00 | 0.81 | 0.81 | 96 | 979.8 |
| 20260504020056 | 2 | 177 | 29.0 | 62.8 | 0.00 | 0.81 | 0.81 | 96 | 979.4 |
| 20260504015547 | 2 | 99 | 32.2 | 72.4 | 0.00 | 0.81 | 0.81 | 96 | 979.8 |
| 20260504015049 | 2 | 122 | 37.0 | 67.6 | 0.00 | 0.81 | 0.81 | 96 | 979.1 |
| 20260504014047 | 2 | 187 | 45.1 | 77.2 | 0.00 | 0.81 | 0.81 | 96 | 978.4 |
| 20260504013102 | 2 | 156 | 41.8 | 74.0 | 0.03 | 0.81 | 0.81 | 96 | 978.6 |
| 20260504012102 | 2 | 119 | 51.5 | 83.7 | 0.03 | 0.81 | 0.81 | 96 | 978.7 |
| 20260504011100 | 2 | 126 | 49.9 | 82.1 | 0.05 | 0.81 | 0.81 | 96 | 979.3 |
| 20260504010552 | 2 | 89 | 53.1 | 90.1 | 0.05 | 0.81 | 0.81 | 96 | 979.3 |
| 20260504005557 | 2 | 196 | 51.5 | 103.0 | 0.05 | 0.81 | 0.81 | 96 | 979.0 |
| 20260504005055 | 2 | 132 | 53.1 | 96.6 | 0.05 | 0.81 | 0.81 | 96 | 979.5 |
| 20260504004103 | 2 | 152 | 51.5 | 85.3 | 0.05 | 0.81 | 0.81 | 96 | 980.0 |
| 20260504002056 | 2 | 133 | 45.1 | 86.9 | 0.05 | 0.79 | 0.79 | 96 | 982.7 |
| 20260504001557 | 2 | 154 | 43.5 | 72.4 | 0.05 | 0.79 | 0.79 | 96 | 983.1 |
| 20260504001037 | 2 | 119 | 43.5 | 78.9 | 0.05 | 0.79 | 0.79 | 96 | 983.6 |
| 20260504000048 | 2 | 115 | 40.2 | 67.6 | 0.05 | 0.79 | 0.79 | 96 | 984.7 |
| 20260503235057 | 2 | 126 | 32.2 | 69.2 | 0.05 | 0.79 | 0.79 | 97 | 986.4 |
| 20260503234554 | 2 | 210 | 30.6 | 67.6 | 0.08 | 0.79 | 0.79 | 97 | 986.8 |
| 20260503234047 | 2 | 126 | 29.0 | 59.5 | 0.08 | 0.76 | 0.76 | 96 | 987.5 |
| 20260503233102 | 2 | 158 | 24.1 | 57.9 | 0.13 | 0.76 | 0.76 | 97 | 988.5 |
| 20260503232558 | 2 | 108 | 25.7 | 57.9 | 0.15 | 0.76 | 0.76 | 97 | 989.2 |
| 20260503232056 | 2 | 116 | 30.6 | 56.3 | 0.15 | 0.74 | 0.74 | 96 | 989.3 |
| 20260503231049 | 3 | 166 | 27.4 | 48.3 | 0.15 | 0.74 | 0.74 | 97 | 990.4 |
| 20260503230546 | 3 | 111 | 24.1 | 48.3 | 0.18 | 0.74 | 0.74 | 97 | 991.2 |
| 20260503225551 | 3 | 156 | 19.3 | 40.2 | 0.20 | 0.71 | 0.71 | 98 | 991.9 |
| 20260503225048 | 3 | 114 | 19.3 | 38.6 | 0.23 | 0.71 | 0.71 | 98 | 992.3 |
| 20260503224047 | 3 | 129 | 14.5 | 32.2 | 0.28 | 0.66 | 0.66 | 98 | 993.1 |
| 20260503223059 | 2 | 61 | 8.0 | 25.7 | 0.33 | 0.64 | 0.64 | 98 | 994.1 |
| 20260503222548 | 2 | 150 | 12.9 | 25.7 | 0.33 | 0.61 | 0.61 | 97 | 994.2 |
| 20260503221551 | 2 | 75 | 12.9 | 32.2 | 0.33 | 0.58 | 0.58 | 97 | 994.4 |
| 20260503220558 | 1 | 106 | 14.5 | 38.6 | 0.30 | 0.56 | 0.56 | 97 | 994.4 |
| 20260503220053 | 1 | 185 | 12.9 | 33.8 | 0.28 | 0.53 | 0.53 | 97 | 994.3 |
| 20260503215547 | 1 | 85 | 11.3 | 40.2 | 0.25 | 0.51 | 0.51 | 97 | 994.6 |
| 20260503214547 | 1 | 100 | 16.1 | 38.6 | 0.20 | 0.43 | 0.43 | 97 | 993.8 |
| 20260503213606 | 1 | 117 | 19.3 | 45.1 | 0.13 | 0.33 | 0.33 | 96 | 994.1 |
| 20260503213055 | 1 | 93 | 22.5 | 46.7 | 0.08 | 0.28 | 0.28 | 96 | 994.2 |
| 20260503212545 | 1 | 100 | 24.1 | 46.7 | 0.10 | 0.28 | 0.28 | 95 | 994.8 |
| 20260503211608 | 2 | 72 | 16.1 | 40.2 | 0.15 | 0.25 | 0.25 | 96 | 996.0 |
| 20260503211048 | 2 | 135 | 12.9 | 25.7 | 0.18 | 0.25 | 0.25 | 96 | 996.2 |
| 20260503210542 | 2 | 97 | 12.9 | 25.7 | 0.23 | 0.25 | 0.25 | 96 | 996.2 |
| 20260503205601 | 2 | 91 | 12.9 | 25.7 | 0.23 | 0.25 | 0.25 | 96 | 996.7 |
| 20260503205040 | 2 | 81 | 11.3 | 20.9 | 0.23 | 0.23 | 0.23 | 96 | 997.3 |
| 20260503204059 | 2 | 94 | 6.4 | 22.5 | 0.23 | 0.23 | 0.23 | 95 | 998.1 |
| 20260503203100 | 2 | 78 | 11.3 | 24.1 | 0.20 | 0.20 | 0.20 | 95 | 998.5 |
| 20260503202546 | 2 | 105 | 11.3 | 24.1 | 0.18 | 0.18 | 0.18 | 95 | 998.6 |
| 20260503201559 | 2 | 110 | 17.7 | 37.0 | 0.10 | 0.10 | 0.10 | 95 | 998.7 |
| 20260503200555 | 2 | 131 | 16.1 | 37.0 | 0.03 | 0.03 | 0.03 | 94 | 999.0 |
| 20260503200050 | 2 | 102 | 16.1 | 37.0 | 0.03 | 0.03 | 0.03 | 93 | 999.2 |
| 20260503195059 | 3 | 101 | 16.1 | 37.0 | 0.00 | 0.00 | 0.00 | 91 | 999.9 |
| 20260503194554 | 3 | 152 | 16.1 | 33.8 | 0.00 | 0.00 | 0.00 | 89 | 1000.4 |
| 20260503194054 | 3 | 112 | 14.5 | 30.6 | 0.00 | 0.00 | 0.00 | 88 | 1001.0 |
| 20260503193101 | 3 | 83 | 17.7 | 33.8 | 0.00 | 0.00 | 0.00 | 85 | 1001.6 |
| 20260503192556 | 3 | 129 | 14.5 | 33.8 | 0.00 | 0.00 | 0.00 | 83 | 1001.8 |